Regional Weather Roundup
Issued by NWS

Home | Current Version | Previous Version | Graphics & Text | Print | Product List | Glossary On
Versions: 1 2 3 4 5 6 7 8 9 10 11 12 13 14 15 16 17 18 19 20 21 22 23 24 25 26 27 28 29 30 31 32 33 34 35 36 37 38 39 40 41 42 43 44 45 46 47 48 49 50
171
ASUS44 KMEG 250110
RWRTN
TENNESSEE HOURLY STATE WEATHER ROUNDUP
NATIONAL WEATHER SERVICE MEMPHIS TN
800 PM CDT SUN SEP 24 2017

TNZ002-004-019-021-049-052-054-088>092-250200-
WEST TENNESSEE

CITY           SKY/WX    TMP DP  RH WIND       PRES   REMARKS
MEMPHIS INTL   PTCLDY    78  67  68 CALM      29.97R
NWS MEMPHIS      N/A     74 N/A N/A MISG        N/A
JACKSON        CLEAR     74  69  85 CALM      29.99R
DYERSBURG      CLEAR     71  70  96 CALM      29.99R
SOMERVILLE     CLEAR     73  72  94 CALM      29.97S
COVINGTON      CLEAR     73  70  88 CALM      29.98R
BOLIVAR        CLEAR     72  70  94 CALM      29.98R
PARIS          CLEAR     72  68  88 CALM      29.99R
HUNTINGDON     PTCLDY    77  68  73 CALM      29.99R
LEXINGTON      CLEAR     73  72  94 CALM      29.99S
SELMER         CLEAR     72  70  94 CALM      29.99R
SAVANNAH       CLEAR     72  72 100 CALM      29.98S
$$

TNZ008-025-027-028-033-062-065-066-250200-
NORTH MIDDLE TENNESSEE

CITY           SKY/WX    TMP DP  RH WIND       PRES   REMARKS
NASHVILLE      PTCLDY    78  66  66 SE6       30.02R
PORTLAND       CLEAR     75  70  83 SE5       30.02R
CLARKSVILLE      N/A     74  68  81 CALM      30.00S
SMYRNA           N/A    N/A N/A N/A MISG        N/A
COOKEVILLE     CLEAR     70  66  88 CALM      30.04R
GALLATIN       CLEAR     77  70  78 CALM      30.04R
CROSSVILLE     CLEAR     68  65  90 CALM      30.10R
$$

TNZ061-075-076-078-094-096-097-250200-
SOUTH MIDDLE TENNESSEE

CITY           SKY/WX    TMP DP  RH WIND       PRES   REMARKS
FAYETTEVILLE   CLEAR     77  66  69 CALM      30.03R
TULLAHOMA      CLEAR     72  64  78 CALM      30.06R
WINCHESTER     CLEAR     72  66  83 SE3       30.05R
MCMINNVILLE    CLEAR     72  72 100 CALM      30.05R
COLUMBIA       CLEAR     73 N/A N/A CALM      30.00R
SHELBYVILLE    CLEAR     73  68  83 SE3       30.02S
$$

TNZ017-018-042-046-047-250200-
NORTHEAST TENNESSEE

CITY           SKY/WX    TMP DP  RH WIND       PRES   REMARKS
TRI CITIES     CLOUDY    74  62  66 CALM      30.08R
ELIZABETHTON   CLOUDY    75  59  57 NE6       30.09R
$$

TNZ012-013-036-069-073-074-250200-
CENTRAL EAST TENNESSEE

CITY           SKY/WX    TMP DP  RH WIND       PRES   REMARKS
KNOXVILLE      PTCLDY    77  63  61 NW3       30.03R
OAK RIDGE      CLEAR     73  67  81 CALM      30.05R
DOWNTOWN KNOXV   N/A     72  68  88 CALM      30.02R
GATLINBURG     CLEAR     73  61  64 CALM      30.03R
MORRISTOWN     CLEAR     77  59  53 CALM      30.04R
JACKSBORO      CLEAR     70  68  94 CALM      30.09R
$$

TNZ083-085-099-250200-
SOUTHEAST TENNESSEE

CITY           SKY/WX    TMP DP  RH WIND       PRES   REMARKS
CHATTANOOGA    MOCLDY    74  68  81 NW3       30.02S
DAYTON         CLEAR     73  72  94 CALM      30.02S
$$

SKY/WX REPORTED AS FAIR MEANS FEW OR NO CLOUDS BELOW
12 THOUSAND FEET.





USA.gov is the U.S. government's official web portal to all federal, state and local government web resources and services.